Location: Chervonnoye
(48.6000°N, 34.4000°E)
Time: 12:09:34
(UTC+00:00)

KAITUO 1B - Pass Details

Date: 07 December 2021
Orbit: 486 x 507 km, 97.4° (Epoch: 28 January)

Event Time Altitude Azimuth Distance (km) Brightness Sun altitude
Rises 03:47:38 0° 20° (NNE) 2,630 ? -14.6°
Reaches altitude 10° 03:49:52 10° 29° (NNE) 1,736 ? -14.2°
Maximum altitude 03:53:20 35° 97° (E) 831 ? -13.7°
Drops below altitude 10° 03:56:45 10° 165° (SSE) 1,710 ? -13.2°
Sets 03:58:56 0° 174° (S) 2,585 ? -12.8°
